Αρχική σελίδα
METAR-TAF:

METAR-TAF

Αεροδρόμια :

Nut Tree Airport

Vacaville, Καλιφόρνια, Ηνωμένες Πολιτείες Αμερικής

γεωγραφικό πλάτος: 38-22-40N, γεωγραφικό μήκος: 121-57-27W, υψόμετρο: 34 μ

Παρών καιρός

Η αναφορά έγινε 17 λεπτά πριν, στις 18:53 UTC
Άνεμος 4 kt από Β/BA
Θερμοκρασία 15°C
Υγρασία 39%
Πίεση 1020 hPa
Ορατότητα: 2.8 χλμ
Νεφοσκεπής σε ύψος 2000 πόδια
καταχνιά

METAR: KVCB 181853Z AUTO 02004KT 1 3/4SM HZ OVC020 15/01 A3013 RMK AO2 SLP201 T01500006 $

Χρόνος: 11:10 (19:10 UTC)


TAF: λείπει

Μετεωρολογικές αναφορές και προγνώσεις για περισσότερα από 4000 αεροδρόμια (δελτία METAR και TAF).

Οι διαθέσιμοι σταθμοί απεικονίζονται στο χάρτη με κίτρινες και κόκκινες κουκκίδες.

Μετακινήστε το ποντίκι πάνω από τις κουκκίδες για να δείτε το όνομα του σταθμού.

Στη συνέχεια, κάντε κλικ για να δείτε τις μετεωρολογικές αναφορές και τις προγνώσεις καιρού.

Για να αλλάξετε το χάρτη: κάντε κλικ στα πράσινα κουμπιά με τον μαύρο σταυρό για να ζουμάρετε, στο πράσινο κουμπί με την παύλα για να αφαιρέσετε το ζουμ ή στα πράσινα βέλη για να αντιπαραβάλλετε χάρτες.


METAR-TAF: